Regional Weather Roundup
Issued by NWS

Home | Current Version | Previous Version | Text Only | Print | Product List | Glossary Off
Versions: 1 2 3 4 5 6 7 8 9 10 11 12 13 14 15 16 17 18 19 20 21 22 23 24 25 26 27 28 29 30 31 32 33 34 35 36 37 38 39 40 41 42 43 44 45 46 47 48 49 50

000
ASUS43 KDMX 282007
RWRIA

WEATHER ROUNDUP FOR IOWA
NATIONAL WEATHER SERVICE DES MOINES IA
300 PM CDT MON JUL 28 2014

NOTE: "FAIR" INDICATES FEW OR NO CLOUDS BELOW 12,000 FEET WITH NO
SIGNIFICANT WEATHER AND/OR OBSTRUCTIONS TO VISIBILITY.

* - THESE STATIONS ARE NOT NWS STATIONS...THUS NOT UNDER NWS
QUALITY CONTROL.  THEY ALSO DO NOT REPORT WEATHER SUCH
AS PRECIPITATION OR FOG.

IAZ001>003-012>014-020>022-031>034-043>046-282100-
   NORTHWEST IOWA

CITY           SKY/WX    TMP DP  RH WIND       PRES   REMARKS
CARROLL *      PTSUNNY   68  63  83 VRB3      30.22F
CHEROKEE *     PTSUNNY   72  59  64 NW6       30.23S
DENISON *      MOSUNNY   72  59  64 N7        30.21F
LE MARS *      PTSUNNY   73  59  60 N9        30.24S
ORANGE CITY *  MOSUNNY   73  55  53 NW9       30.24S
SHELDON *      CLOUDY    70  57  64 N7        30.23S
SIOUX CITY     PTSUNNY   78  58  49 VRB6      30.24S
SPENCER        CLOUDY    71  58  63 VRB3      30.23S
STORM LAKE *   MOSUNNY   72  63  73 N7        30.24S
$$

IAZ055>058-069>071-079>083-090>094-282100-
   SOUTHWEST IOWA

CITY           SKY/WX    TMP DP  RH WIND       PRES   REMARKS
ATLANTIC *     CLOUDY    72  59  64 NW5       30.22F
AUDUBON *      MOSUNNY   75  64  69 NW6       30.23F
CLARINDA *     PTSUNNY   73  61  64 N6        30.24F
COUNCIL BLFS * MOSUNNY   75  59  57 VRB5      30.23F
CRESTON *      MOSUNNY   73  57  56 VRB7      30.22F
HARLAN  *      MOSUNNY   72  61  68 VRB5G12   30.26F
LAMONI         MOSUNNY   75  57  53 NW8       30.21F
RED OAK *      MOSUNNY   75  61  60 NW7       30.23F
SHENANDOAH *   MOSUNNY   75  59  57 N6        30.23F
$$

IAZ047>049-059>061-072>074-084-282100-
   CENTRAL IOWA

CITY           SKY/WX    TMP DP  RH WIND       PRES   REMARKS
AMES           PTSUNNY   74  58  57 VRB5      30.19F
ANKENY *       PTSUNNY   75  54  46 VRB7      30.19F
CHARITON *     PTSUNNY   73  55  53 NW8       30.21S
DES MOINES     PTSUNNY   76  54  46 W9        30.19F
GRINNELL*      CLOUDY    70  57  64 N6        30.20S
KNOXVILLE *    CLOUDY    72  54  53 N6G13     30.19S
MARSHALLTOWN   CLOUDY    71  59  65 NW7       30.18F
PELLA *        MOSUNNY   73  57  56 NW7       30.20F
PERRY *        CLOUDY    72  57  60 CALM      30.21S
$$

IAZ004>006-015-016-023>025-035-036-282100-
   NORTH CENTRAL IOWA

CITY           SKY/WX    TMP DP  RH WIND       PRES   REMARKS
ALGONA *       PTSUNNY   72  57  60 N7        30.21F
CLARION *      PTSUNNY   70  59  68 VRB6      30.20S
ESTHERVILLE    CLOUDY    72  56  57 VRB7      30.22S
FORT DODGE *   CLOUDY    72  59  64 N7        30.21F
MASON CITY     CLOUDY    74  54  49 N12       30.20F
FOREST CITY *  CLOUDY    72  54  53 N12       30.20F
IOWA FALLS *   CLOUDY    73  57  56 N8        30.20F
$$

IAZ007>011-017>019-026>030-037>042-050>054-066-282100-
   NORTHEAST IOWA

CITY           SKY/WX    TMP DP  RH WIND       PRES   REMARKS
CEDAR RAPIDS   PTSUNNY   75  50  41 N12       30.15S
CHARLES CITY * CLOUDY    72  54  53 N9G15     30.19S
CLINTON *      CLOUDY    70  52  52 N12       30.17S
DECORAH *      CLOUDY    70  52  52 N7G14     30.16S
DUBUQUE        CLOUDY    69  50  50 N10       30.16S
MONTICELLO *   MOSUNNY   72  52  49 MISG      30.15F
OELWEIN *      PTSUNNY   73  54  49 N10G17    30.17S
WATERLOO       PTSUNNY   73  55  53 N12       30.16S
$$

IAZ064-065-067-068-078-282100-
   EAST CENTRAL IOWA

CITY           SKY/WX    TMP DP  RH WIND       PRES   REMARKS
DAVENPORT      CLOUDY    72  52  49 N12       30.15S
IOWA CITY      PTSUNNY   72  52  49 N10       30.17S
MT. PLEASANT * MOSUNNY   73  52  46 N12G17    30.16F
MUSCATINE *    MOSUNNY   75  50  41 NW10      30.16R
QUAD CITIES    PTSUNNY   73  49  42 N9        30.14S
$$

IAZ062-063-075>077-085>089-095>099-282100-
   SOUTHEAST IOWA

CITY           SKY/WX    TMP DP  RH WIND       PRES   REMARKS
BURLINGTON     PTSUNNY   73  52  47 N14       30.15S
FAIRFIELD *    CLOUDY    73  55  53 NW10      30.18S
FORT MADISON * MOSUNNY   75  54  46 N9        30.16F
KEOKUK *       MOSUNNY   73  54  49 N13G18    30.15F
OSKALOOSA *    CLOUDY    70  57  64 NW8       30.19F
CENTERVILLE *  SUNNY     73  55  53 N7        30.22S
OTTUMWA        CLOUDY    71  55  56 NW14      30.19S
WASHINGTON *   PTSUNNY   75  55  50 N13       30.17S
$$

ABBREVIATIONS USED IN REMARKS
   TC - TEMPERATURES IN CELSIUS
  WCI - WIND CHILL INDEX
   HX - HEAT INDEX
  VSB - VISIBILITY
$$




USA.gov is the U.S. government's official web portal to all federal, state and local government web resources and services.